[[{"header":{"parameterUnit":"m.s-1","parameterCategory":1,"la1":30.2991,"la2":30.254,"lo1":-89.0895,"lo2":-89.0444,"dy":0.0017,"dx":0.0017,"nx":28,"ny":28,"refTime":"2024-06-22T09:00:00:Z","depth":0,"parameterNumber":2,"parameterNumberName":"U-component_of_WINDS"},"data":[0,0,0,0,0,0,0,0,0,0,0,0,0,0,0,0,0,0,0,0,0,0,0,0,0,0,0,0,0,0,0,0,0,0,0,0,0,0,0,0,0,0,0,0,0,0,0,0,0,0,0,0,0,0,0,0,0,0,0.3891,0.3891,0,0.3944,0.3944,0.3945,0.397,0.397,0.397,0.397,0.4021,0.4023,0.4024,0,0,0,0,0,0,0,0,0,0,0,0,0,0.3807,0.3809,0.3891,0.3891,0.3892,0.3944,0.3944,0.3945,0.397,0.397,0.397,0.397,0.4021,0.4023,0.4024,0,0,0,0,0,0,0,0,0,0,0,0,0,0.385,0.3809,0.3891,0.3911,0.3913,0.3944,0.3944,0.3945,0.397,0.397,0.397,0.397,0.402,0.4022,0.4025,0.4038,0,0,0.4031,0.4032,0,0,0,0,0,0,0,0,0.3848,0.3853,0.3907,0.391,0.3912,0.395,0.3934,0.3976,0.397,0.3948,0.397,0.397,0.3998,0.4002,0.4012,0.404,0.4043,0.4031,0.4032,0.4033,0.4034,0,0,0,0,0,0,0,0.3845,0.3851,0.3912,0.3908,0.3911,0.3916,0.3922,0.3942,0.3972,0.395,0.3952,0.3958,0.3999,0.4009,0.4013,0.4043,0.4031,0.4033,0.4034,0.4035,0.4084,0.4084,0,0,0,0,0,0,0.3839,0.3848,0.391,0.3913,0.3879,0.3917,0.3924,0.3938,0.3972,0.3978,0.3958,0.3959,0.4006,0.401,0.4015,0.4032,0.4033,0.4035,0.4036,0.4084,0.4084,0.4085,0,0,0,0,0,0,0.3837,0.3844,0.3908,0.3881,0.389,0.3919,0.3934,0.3939,0.395,0.3978,0.3984,0.3964,0.4006,0.4012,0.4032,0.4034,0.4036,0.4038,0.4084,0.4084,0.4084,0.4067,0,0,0,0,0,0,0.3834,0.3843,0.385,0.3881,0.3891,0.3925,0.3934,0.394,0.3954,0.3955,0.3985,0.399,0.4006,0.4029,0.4034,0.4037,0.404,0.4084,0.4084,0.4084,0.4068,0.4067,0.4066,0,0,0,0,0,0.3831,0.3842,0.385,0.3857,0.39,0.3925,0.3931,0.3951,0.3954,0.396,0.3978,0.3989,0.4033,0.4031,0.4037,0.4041,0.4084,0.4084,0.4084,0.4068,0.4067,0.4066,0,0,0,0,0,0,0.381,0.3847,0.3856,0.3878,0.3898,0.393,0.3938,0.3949,0.3969,0.3969,0.3992,0.3999,0.4016,0.403,0.4027,0.4055,0.406,0.4061,0.4045,0.4044,0.4043,0.4039,0.4041,0,0,0,0,0,0.3808,0.3826,0.3857,0.3874,0.3883,0.3909,0.3921,0.3934,0.3956,0.3965,0.3984,0.4004,0.4022,0.4034,0.4053,0.407,0.4076,0.4075,0.4074,0.4073,0.4074,0.4083,0.4083,0.4085,0.4085,0.4085,0,0,0.3803,0.3826,0.3836,0.387,0.3887,0.3905,0.3916,0.3934,0.3947,0.3967,0.3987,0.4002,0.4026,0.4044,0.4053,0.4056,0.4075,0.4074,0.4073,0.4074,0.4083,0.4083,0.4083,0.4085,0.4085,0.4085,0,0,0.3804,0.3824,0.3839,0.3856,0.3883,0.3899,0.3903,0.3932,0.3943,0.3964,0.3979,0.3994,0.4025,0.4041,0.4053,0.4058,0.4069,0.4064,0.4059,0.4067,0.4067,0.4067,0.4068,0.4069,0.4064,0.4064,0.4064,0,0.3795,0.3824,0.3845,0.3863,0.3876,0.3896,0.391,0.3926,0.3956,0.3965,0.3968,0.4007,0.4024,0.4046,0.4047,0.4057,0.406,0.4061,0.4066,0.4066,0.4066,0.4068,0.4068,0.4064,0.4064,0.4064,0.4064,0,0.3811,0.383,0.3839,0.3869,0.3883,0.3899,0.3922,0.3934,0.3945,0.3961,0.3981,0.4002,0.4025,0.4031,0.4042,0.4054,0.4055,0.4062,0.4067,0.4065,0.4066,0.4067,0.4062,0.4063,0.4063,0.4063,0,0,0.3801,0.3842,0.3845,0.3858,0.3888,0.3902,0.3918,0.3941,0.395,0.397,0.3983,0.4009,0.4015,0.4029,0.4042,0.4049,0.4051,0.4055,0.4056,0.4053,0.4064,0.4058,0.4059,0.4058,0.4058,0.4058,0.4062,0,0.3806,0.3837,0.3856,0.3878,0.3895,0.3913,0.3927,0.3946,0.396,0.3976,0.3991,0.4009,0.4016,0.4024,0.4032,0.4049,0.4053,0.4049,0.4069,0.407,0.4063,0.406,0.4055,0.4057,0.4062,0.4063,0.4063,0,0.3816,0.3836,0.3861,0.3888,0.3896,0.3908,0.3929,0.3945,0.3966,0.3976,0.399,0.4003,0.4019,0.4023,0.4044,0.4041,0.405,0.4059,0.406,0.4062,0.4066,0.4062,0.4058,0.4059,0.4064,0.4064,0.4064,0,0.3806,0.3839,0.3858,0.3868,0.3901,0.3908,0.3922,0.3943,0.3955,0.3973,0.3981,0.4001,0.4012,0.4026,0.4043,0.4045,0.4063,0.4068,0.407,0.407,0.4074,0.4073,0.4071,0.408,0.408,0.408,0.408,0,0.381,0.3824,0.3853,0.3865,0.388,0.3901,0.3916,0.3931,0.3949,0.3962,0.3978,0.399,0.4013,0.4027,0.4041,0.4056,0.4061,0.4068,0.4072,0.4067,0.4066,0.4073,0.4073,0.408,0.408,0.408,0.408,0,0.3801,0.3822,0.3843,0.3871,0.3879,0.3889,0.3913,0.3923,0.3938,0.3955,0.396,0.3983,0.4001,0.402,0.4044,0.4053,0.4067,0.4072,0.406,0.4062,0.4063,0.4063,0.4066,0.4067,0.4075,0.4074,0.4074,0,0.3802,0.3813,0.3843,0.3854,0.3867,0.3884,0.3896,0.3916,0.3928,0.3952,0.396,0.3979,0.3995,0.4022,0.404,0.4058,0.4063,0.4063,0.4066,0.406,0.4063,0.4062,0.4063,0.4062,0.4062,0.4062,0.4062,0,0.3802,0.3811,0.3829,0.385,0.3864,0.3881,0.3899,0.3906,0.393,0.3942,0.3961,0.3973,0.3997,0.4015,0.4035,0.4048,0.4058,0.4061,0.4062,0.4057,0.405,0.4053,0.4057,0.4061,0.4061,0.4061,0.4061,0.4061,0.3798,0.3808,0.383,0.3849,0.3865,0.388,0.3892,0.3908,0.3924,0.3946,0.3957,0.3975,0.3994,0.4022,0.4034,0.4047,0.4051,0.4053,0.4053,0.4053,0.4052,0.4048,0.4051,0.4051,0.4051,0.4051,0.4051,0,0.3798,0.3813,0.383,0.3854,0.3868,0.3878,0.3897,0.3908,0.3924,0.3942,0.3957,0.3978,0.3995,0.4014,0.4032,0.4039,0.4044,0.4043,0.4043,0.4045,0.4048,0.4045,0.4039,0.4039,0.4039,0.4039,0.4039,0.4039,0.3799,0.3817,0.3829,0.3854,0.3868,0.3887,0.3897,0.3911,0.3925,0.3948,0.3962,0.3975,0.3992,0.4012,0.4027,0.4032,0.4038,0.4035,0.4042,0.4044,0.4045,0.4046,0.4043,0.4036,0.4036,0.4037,0.4037,0.4037]},{"header":{"parameterUnit":"m.s-1","parameterCategory":1,"la1":30.2991,"la2":30.254,"lo1":-89.0895,"lo2":-89.0444,"dy":0.0017,"dx":0.0017,"nx":28,"ny":28,"refTime":"2024-06-22T09:00:00:Z","depth":0,"parameterNumber":3,"parameterNumberName":"V-component_of_WINDS"},"data":[0,0,0,0,0,0,0,0,0,0,0,0,0,0,0,0,0,0,0,0,0,0,0,0,0,0,0,0,0,0,0,0,0,0,0,0,0,0,0,0,0,0,0,0,0,0,0,0,0,0,0,0,0,0,0,0,0,0,5.2425,5.2426,0,5.248,5.2481,5.2482,5.244,5.2438,5.2436,5.2434,5.2486,5.2489,5.2492,0,0,0,0,0,0,0,0,0,0,0,0,0,5.2276,5.2279,5.2425,5.2426,5.2426,5.248,5.2481,5.2482,5.244,5.2438,5.2435,5.2433,5.2485,5.2489,5.2492,0,0,0,0,0,0,0,0,0,0,0,0,0,5.2337,5.228,5.2425,5.2412,5.2411,5.248,5.2481,5.2482,5.244,5.2438,5.2435,5.2432,5.2484,5.2488,5.2493,5.2575,0,0,5.2507,5.2509,0,0,0,0,0,0,0,0,5.2334,5.2343,5.2413,5.2413,5.2412,5.245,5.2448,5.2513,5.2441,5.2429,5.2434,5.2431,5.2476,5.2481,5.2497,5.2578,5.258,5.2507,5.251,5.2512,5.2513,0,0,0,0,0,0,0,5.233,5.234,5.2447,5.2414,5.2414,5.2401,5.2407,5.246,5.2467,5.243,5.2427,5.2435,5.2475,5.2493,5.2498,5.2581,5.2507,5.2511,5.2514,5.2516,5.2729,5.2732,0,0,0,0,0,0,5.2327,5.2337,5.2445,5.2448,5.2366,5.2406,5.2413,5.2441,5.2466,5.2468,5.2437,5.2432,5.2486,5.2493,5.25,5.2597,5.2512,5.2516,5.2519,5.2726,5.273,5.2733,0,0,0,0,0,0,5.2324,5.2337,5.2443,5.2392,5.2404,5.2412,5.2444,5.2443,5.2461,5.2472,5.2472,5.2454,5.2484,5.2493,5.2557,5.2598,5.2518,5.2522,5.2723,5.2727,5.2731,5.2792,0,0,0,0,0,0,5.232,5.2337,5.237,5.2393,5.2407,5.2501,5.2446,5.2446,5.247,5.2464,5.2488,5.2489,5.2483,5.255,5.2561,5.2603,5.2526,5.2719,5.2725,5.273,5.2786,5.2798,5.2808,0,0,0,0,0,5.2315,5.2384,5.2372,5.2385,5.2449,5.2503,5.2511,5.2505,5.2473,5.2505,5.2512,5.2488,5.2592,5.2557,5.2569,5.2613,5.2717,5.2723,5.273,5.2782,5.2796,5.2808,0,0,0,0,0,0,5.2364,5.2387,5.2373,5.2452,5.2476,5.2496,5.2537,5.252,5.2552,5.2546,5.2534,5.254,5.2606,5.2616,5.2577,5.2693,5.2649,5.2658,5.2684,5.2698,5.2708,5.2704,5.253,0,0,0,0,0,5.2385,5.2429,5.2445,5.2513,5.2526,5.2529,5.2553,5.2545,5.2569,5.2579,5.259,5.2612,5.2649,5.2674,5.2709,5.2788,5.2791,5.2823,5.2834,5.2843,5.2851,5.2891,5.2905,5.2755,5.2754,5.2754,0,0,5.2426,5.2444,5.2473,5.2523,5.2541,5.2585,5.2538,5.2587,5.2618,5.2585,5.2646,5.2655,5.2679,5.275,5.2781,5.276,5.2893,5.2851,5.2858,5.2861,5.2899,5.2913,5.2926,5.2759,5.2758,5.2757,0,0,5.2525,5.2544,5.2601,5.262,5.2648,5.2649,5.2663,5.2685,5.269,5.2751,5.2727,5.2763,5.2828,5.2846,5.2863,5.2967,5.2945,5.2978,5.3034,5.3073,5.3085,5.3095,5.313,5.3143,5.2986,5.2986,5.2986,0,5.2573,5.264,5.2633,5.2683,5.2705,5.2678,5.2735,5.2753,5.279,5.2805,5.2781,5.2861,5.2875,5.2949,5.2974,5.2989,5.3003,5.2975,5.3084,5.3094,5.3104,5.3137,5.3151,5.299,5.299,5.2989,5.2989,0,5.2696,5.2743,5.2786,5.2823,5.285,5.2903,5.2902,5.293,5.292,5.2923,5.2984,5.3,5.3037,5.3054,5.3045,5.3126,5.3112,5.3086,5.3041,5.3122,5.3153,5.3166,5.2995,5.2994,5.2993,5.2992,0,0,5.2828,5.286,5.2876,5.2892,5.292,5.2955,5.3005,5.3043,5.3066,5.3092,5.3133,5.3188,5.3164,5.3183,5.3175,5.321,5.3288,5.318,5.318,5.3198,5.3377,5.3395,5.341,5.3275,5.3277,5.3279,5.3374,0,5.2926,5.3017,5.3011,5.3095,5.3137,5.3111,5.3155,5.3176,5.318,5.3214,5.3217,5.3256,5.3223,5.3234,5.3267,5.3272,5.3324,5.3265,5.3311,5.3312,5.3305,5.3427,5.3447,5.3536,5.3386,5.3388,5.339,0,5.3054,5.3085,5.3174,5.3194,5.3211,5.3251,5.3283,5.3317,5.3339,5.3339,5.3361,5.3347,5.3395,5.335,5.3416,5.3376,5.3394,5.3399,5.3403,5.3406,5.3355,5.3432,5.3564,5.3577,5.3409,5.3408,5.3406,0,5.3139,5.3203,5.3264,5.3278,5.3304,5.3332,5.3343,5.3363,5.3385,5.3413,5.3427,5.346,5.3478,5.3502,5.3496,5.3465,5.3563,5.3518,5.3563,5.3563,5.3584,5.3583,5.372,5.3598,5.3598,5.3597,5.3597,0,5.3249,5.3304,5.3302,5.334,5.3399,5.3391,5.345,5.3458,5.3475,5.3511,5.3491,5.3525,5.3516,5.3549,5.3545,5.3599,5.3607,5.3607,5.3605,5.3609,5.3609,5.362,5.3613,5.3601,5.36,5.36,5.3599,0,5.3354,5.3356,5.342,5.3439,5.3444,5.3487,5.3502,5.3536,5.3538,5.3585,5.3595,5.3598,5.3636,5.3633,5.3675,5.3672,5.3739,5.373,5.3732,5.3729,5.3774,5.3769,5.3922,5.3941,5.3808,5.3809,5.381,0,5.3424,5.3466,5.3489,5.3512,5.3526,5.3564,5.3587,5.358,5.3604,5.3631,5.3661,5.3697,5.3726,5.3788,5.3793,5.3824,5.3815,5.3867,5.382,5.3822,5.3814,5.3812,5.3815,5.3876,5.3877,5.3878,5.3879,0,5.3547,5.3545,5.358,5.3614,5.3642,5.3668,5.3692,5.3712,5.3707,5.3734,5.3774,5.3796,5.3839,5.3875,5.3905,5.3914,5.3896,5.3894,5.3906,5.3909,5.3908,5.3908,5.3756,5.3891,5.3889,5.3889,5.3888,5.3888,5.3636,5.3671,5.3692,5.373,5.3747,5.377,5.3802,5.3808,5.3842,5.3877,5.387,5.3914,5.3932,5.3971,5.3984,5.4016,5.3997,5.4015,5.4019,5.4023,5.4028,5.3904,5.4022,5.4021,5.4021,5.4021,5.4021,0,5.3756,5.3769,5.3804,5.3838,5.3868,5.3849,5.3873,5.3899,5.3938,5.3957,5.3986,5.403,5.4064,5.4071,5.4103,5.4128,5.412,5.4137,5.4134,5.4136,5.4043,5.4029,5.4142,5.4142,5.4142,5.4142,5.4142,5.4142,5.3823,5.3881,5.3881,5.3946,5.3957,5.4001,5.4016,5.4036,5.4051,5.4102,5.4131,5.4135,5.4149,5.4182,5.4212,5.4213,5.4225,5.4245,5.4242,5.4155,5.4143,5.4131,5.4118,5.4248,5.4248,5.4332,5.4333,5.4333]}]]